K6PIJ Weather Reports


Display with metric or nautical units.
time (UTC)temp
F
wind
direction
speed
MPH
gust
MPH
rain 1hr
in
rain 24hr
in
rain mn
in
humidity
%
barometer
mb
20180920235855 63 278 9.0 16.0 0.00 0.00 0.00 74 1015.4
20180920235743 63 288 9.0 18.0 0.00 0.00 0.00 73 1015.3
20180920235345 63 296 11.0 18.0 0.00 0.00 0.00 73 1015.3
20180920234853 64 293 12.0 17.0 0.00 0.00 0.00 72 1015.2
20180920234345 64 262 9.0 17.0 0.00 0.00 0.00 73 1015.2
20180920234207 63 282 9.0 17.0 0.00 0.00 0.00 72 1015.2
20180920233856 64 297 8.0 16.0 0.00 0.00 0.00 72 1015.3
20180920233346 64 224 8.0 17.0 0.00 0.00 0.00 72 1015.2
20180920232856 65 282 10.0 17.0 0.00 0.00 0.00 71 1015.3
20180920232631 64 267 7.0 15.0 0.00 0.00 0.00 72 1015.2
20180920232348 64 269 9.0 15.0 0.00 0.00 0.00 72 1015.2
20180920231853 64 292 8.0 13.0 0.00 0.00 0.00 72 1015.3
20180920231345 64 279 10.0 16.0 0.00 0.00 0.00 72 1015.3
20180920231052 64 280 9.0 16.0 0.00 0.00 0.00 72 1015.3
20180920230900 64 285 10.0 16.0 0.00 0.00 0.00 71 1015.2
20180920230350 64 233 8.0 15.0 0.00 0.00 0.00 72 1015.3
20180920225901 65 271 8.0 15.0 0.00 0.00 0.00 71 1015.3
20180920225447 64 279 7.0 15.0 0.00 0.00 0.00 71 1015.3
20180920225354 65 278 7.0 15.0 0.00 0.00 0.00 71 1015.3
20180920224904 64 298 8.0 15.0 0.00 0.00 0.00 71 1015.3
20180920224352 65 266 8.0 16.0 0.00 0.00 0.00 70 1015.3
20180920223913 64 277 8.0 16.0 0.00 0.00 0.00 70 1015.4
20180920223845 65 271 8.0 16.0 0.00 0.00 0.00 70 1015.4
20180920223355 64 275 9.0 17.0 0.00 0.00 0.00 70 1015.3
20180920222846 64 284 11.0 19.0 0.00 0.00 0.00 70 1015.4
20180920222400 64 278 11.0 19.0 0.00 0.00 0.00 70 1015.4
20180920222315 64 238 11.0 19.0 0.00 0.00 0.00 70 1015.4
20180920221850 64 266 11.0 18.0 0.00 0.00 0.00 70 1015.3
20180920221353 64 299 12.0 18.0 0.00 0.00 0.00 71 1015.4
20180920220847 64 288 12.0 18.0 0.00 0.00 0.00 71 1015.4
20180920220740 64 300 11.0 18.0 0.00 0.00 0.00 72 1015.4
20180920220358 64 207 11.0 18.0 0.00 0.00 0.00 71 1015.4
20180920215847 65 297 12.0 17.0 0.00 0.00 0.00 70 1015.5
20180920215358 65 271 11.0 16.0 0.00 0.00 0.00 69 1015.5
20180920215144 64 298 11.0 17.0 0.00 0.00 0.00 70 1015.5
20180920214847 65 272 12.0 17.0 0.00 0.00 0.00 69 1015.5
20180920214359 66 284 12.0 16.0 0.00 0.00 0.00 68 1015.5
20180920213851 66 285 11.0 17.0 0.00 0.00 0.00 67 1015.5
20180920213614 65 288 9.0 18.0 0.00 0.00 0.00 67 1015.5
20180920213403 66 278 10.0 18.0 0.00 0.00 0.00 68 1015.5
20180920212854 66 278 11.0 18.0 0.00 0.00 0.00 66 1015.5
20180920212346 65 264 10.0 16.0 0.00 0.00 0.00 67 1015.5
20180920212030 65 287 10.0 16.0 0.00 0.00 0.00 67 1015.4
20180920211856 65 292 10.0 16.0 0.00 0.00 0.00 68 1015.5
20180920211345 66 285 10.0 15.0 0.00 0.00 0.00 67 1015.4
20180920210856 66 293 9.0 15.0 0.00 0.00 0.00 67 1015.5
20180920210451 65 271 11.0 17.0 0.00 0.00 0.00 66 1015.5
20180920210346 65 288 11.0 17.0 0.00 0.00 0.00 66 1015.5
20180920205855 65 289 10.0 17.0 0.00 0.00 0.00 67 1015.5
20180920205348 66 300 8.0 18.0 0.00 0.00 0.00 67 1015.6
20180920204900 65 301 11.0 18.0 0.00 0.00 0.00 67 1015.6
20180920204833 65 304 9.0 18.0 0.00 0.00 0.00 67 1015.6
20180920204349 65 256 9.0 14.0 0.00 0.00 0.00 68 1015.6
20180920203857 65 280 7.0 14.0 0.00 0.00 0.00 68 1015.7
20180920203347 66 281 7.0 14.0 0.00 0.00 0.00 67 1015.7
20180920203243 66 276 4.0 12.0 0.00 0.00 0.00 67 1015.7
20180920202857 65 258 5.0 12.0 0.00 0.00 0.00 70 1015.8
20180920202350 65 283 5.0 12.0 0.00 0.00 0.00 70 1015.8
20180920201903 65 283 6.0 12.0 0.00 0.00 0.00 69 1015.8
20180920201708 65 253 4.0 13.0 0.00 0.00 0.00 71 1015.7
20180920201353 65 76 6.0 13.0 0.00 0.00 0.00 71 1015.8
20180920200846 64 181 10.0 18.0 0.00 0.00 0.00 72 1015.7
20180920200359 64 272 10.0 18.0 0.00 0.00 0.00 72 1015.7
20180920200134 63 307 9.0 16.0 0.00 0.00 0.00 72 1015.7
20180920195849 64 297 11.0 16.0 0.00 0.00 0.00 71 1015.6
20180920195355 65 285 9.0 14.0 0.00 0.00 0.00 70 1015.6
20180920194846 65 242 7.0 14.0 0.00 0.00 0.00 69 1015.7
20180920194549 65 290 5.0 13.0 0.00 0.00 0.00 69 1015.7
20180920194358 65 269 6.0 13.0 0.00 0.00 0.00 70 1015.8
20180920193847 65 274 9.0 13.0 0.00 0.00 0.00 68 1015.8
20180920193356 65 315 6.0 13.0 0.00 0.00 0.00 69 1015.9
20180920192956 64 295 9.0 14.0 0.00 0.00 0.00 69 1016.0
20180920192845 65 308 9.0 14.0 0.00 0.00 0.00 69 1016.0
20180920192352 65 282 6.0 12.0 0.00 0.00 0.00 70 1016.0
20180920191905 65 300 8.0 12.0 0.00 0.00 0.00 71 1016.1
20180920191414 64 268 7.0 12.0 0.00 0.00 0.00 71 1016.1
20180920191354 65 295 7.0 12.0 0.00 0.00 0.00 71 1016.1
20180920190845 65 271 6.0 11.0 0.00 0.00 0.00 72 1016.2
20180920190357 64 286 3.0 8.0 0.00 0.00 0.00 74 1016.3
20180920185845 64 281 3.0 8.0 0.00 0.00 0.00 74 1016.4
20180920185800 63 296 2.0 8.0 0.00 0.00 0.00 75 1016.4
20180920185355 63 280 4.0 7.0 0.00 0.00 0.00 76 1016.4
20180920184904 63 282 3.0 8.0 0.00 0.00 0.00 77 1016.5
20180920184354 62 281 4.0 9.0 0.00 0.00 0.00 78 1016.6
20180920184230 62 290 5.0 11.0 0.00 0.00 0.00 77 1016.6
20180920183902 62 224 3.0 11.0 0.00 0.00 0.00 79 1016.6
20180920183355 62 262 7.0 11.0 0.00 0.00 0.00 79 1016.7
20180920182903 62 272 5.0 9.0 0.00 0.00 0.00 80 1016.7
20180920182649 61 303 3.0 10.0 0.00 0.00 0.00 81 1016.7
20180920182353 61 284 5.0 10.0 0.00 0.00 0.00 80 1016.8
20180920181903 61 251 5.0 10.0 0.00 0.00 0.00 81 1016.7
20180920181350 61 278 6.0 11.0 0.00 0.00 0.00 80 1016.8
20180920181110 60 298 5.0 11.0 0.00 0.00 0.00 80 1016.8
20180920180902 61 302 7.0 11.0 0.00 0.00 0.00 81 1016.9
20180920180354 61 304 4.0 11.0 0.00 0.00 0.00 83 1016.9
20180920175901 60 271 6.0 10.0 0.00 0.00 0.00 83 1016.8
20180920175501 60 283 6.0 9.0 0.00 0.00 0.00 83 1016.9
20180920175350 60 278 6.0 9.0 0.00 0.00 0.00 82 1016.9
20180920174857 60 285 5.0 9.0 0.00 0.00 0.00 82 1016.9
20180920174415 60 293 5.0 8.0 0.00 0.00 0.00 82 1016.9
20180920173921 60 297 5.0 8.0 0.00 0.00 0.00 82 1016.8
20180920173854 60 288 6.0 8.0 0.00 0.00 0.00 83 1016.8
20180920173405 60 298 5.0 9.0 0.00 0.00 0.00 82 1016.9
20180920172855 59 297 5.0 9.0 0.00 0.00 0.00 82 1016.9
20180920172404 59 307 2.0 8.0 0.00 0.00 0.00 82 1017.0
20180920172310 59 311 2.0 8.0 0.00 0.00 0.00 82 1016.9
20180920171854 59 293 2.0 6.0 0.00 0.00 0.00 83 1016.9
20180920171404 59 254 1.0 6.0 0.00 0.00 0.00 82 1016.9
20180920170854 59 297 3.0 5.0 0.00 0.00 0.00 82 1017.0
20180920170728 59 300 2.0 5.0 0.00 0.00 0.00 83 1017.0
20180920170402 59 281 2.0 5.0 0.00 0.00 0.00 84 1017.0
20180920165849 58 231 1.0 4.0 0.00 0.00 0.00 83 1017.1
20180920165401 58 305 2.0 5.0 0.00 0.00 0.00 83 1017.1
20180920165127 58 300 1.0 5.0 0.00 0.00 0.00 83 1017.1
20180920164853 58 308 2.0 5.0 0.00 0.00 0.00 83 1017.2
20180920164404 58 205 1.0 4.0 0.00 0.00 0.00 84 1017.1
20180920163855 58 76 1.0 5.0 0.00 0.00 0.00 84 1017.2
20180920163541 57 62 2.0 5.0 0.00 0.00 0.00 84 1017.1
20180920163404 58 92 2.0 5.0 0.00 0.00 0.00 85 1017.2
20180920162854 58 60 1.0 3.0 0.00 0.00 0.00 89 1017.1
20180920162345 57 132 0.0 4.0 0.00 0.00 0.00 89 1017.1
20180920161956 56 73 1.0 4.0 0.00 0.00 0.00 89 1017.1
20180920161856 56 73 1.0 4.0 0.00 0.00 0.00 90 1017.1
20180920161403 56 131 1.0 3.0 0.00 0.00 0.00 91 1017.1
20180920160851 55 332 0.0 2.0 0.00 0.00 0.00 91 1017.2
20180920160414 54 60 0.0 3.0 0.00 0.00 0.00 91 1017.2
20180920160358 55 60 0.0 3.0 0.00 0.00 0.00 91 1017.2
20180920155847 54 88 2.0 3.0 0.00 0.00 0.00 91 1017.2
20180920155353 54 81 1.0 3.0 0.00 0.00 0.00 92 1017.3
20180920154859 54 8 1.0 3.0 0.00 0.00 0.00 92 1017.2
20180920154749 53 335 1.0 3.0 0.00 0.00 0.00 92 1017.2
20180920154348 54 316 2.0 3.0 0.00 0.00 0.00 92 1017.2
20180920153900 54 305 0.0 2.0 0.00 0.00 0.00 92 1017.2
20180920153352 54 298 1.0 2.0 0.00 0.00 0.00 92 1017.2
20180920153208 53 298 1.0 2.0 0.00 0.00 0.00 92 1017.2
20180920152905 54 307 1.0 2.0 0.00 0.00 0.00 93 1017.2
20180920152356 54 241 0.0 1.0 0.00 0.00 0.00 93 1017.2
20180920151846 54 260 0.0 1.0 0.00 0.00 0.00 93 1017.2
20180920151632 53 229 0.0 2.0 0.00 0.00 0.00 93 1017.2
20180920151356 54 262 0.0 2.0 0.00 0.00 0.00 93 1017.3
20180920150402 54 231 1.0 3.0 0.00 0.00 0.00 93 1017.4
20180920150040 53 237 0.0 3.0 0.00 0.00 0.00 93 1017.4
20180920145852 53 241 0.0 3.0 0.00 0.00 0.00 93 1017.4
20180920145345 53 224 1.0 3.0 0.00 0.00 0.00 93 1017.4
20180920144856 53 259 0.0 2.0 0.00 0.00 0.00 93 1017.4
20180920144515 53 211 0.0 1.0 0.00 0.00 0.00 93 1017.4
20180920144345 53 246 0.0 2.0 0.00 0.00 0.00 93 1017.4
20180920143856 53 246 0.0 2.0 0.00 0.00 0.00 93 1017.3
20180920143349 53 262 1.0 2.0 0.00 0.00 0.00 93 1017.2
20180920142923 53 248 0.0 2.0 0.00 0.00 0.00 92 1017.2
20180920142902 53 224 0.0 2.0 0.00 0.00 0.00 92 1017.1
20180920142353 53 236 1.0 2.0 0.00 0.00 0.00 92 1017.1
20180920141903 53 238 1.0 3.0 0.00 0.00 0.00 92 1017.1
20180920141351 54 222 1.0 3.0 0.00 0.00 0.00 92 1017.0
20180920141322 53 213 0.0 3.0 0.00 0.00 0.00 92 1017.0
20180920140900 54 285 0.0 3.0 0.00 0.00 0.00 92 1016.9
20180920140351 54 274 2.0 4.0 0.00 0.00 0.00 92 1016.9
20180920135901 54 267 3.0 4.0 0.00 0.00 0.00 92 1016.9
20180920135722 53 274 2.0 4.0 0.00 0.00 0.00 92 1016.9
20180920135353 54 277 2.0 3.0 0.00 0.00 0.00 92 1016.8
20180920134905 54 274 1.0 3.0 0.00 0.00 0.00 92 1016.8
20180920134353 54 279 2.0 3.0 0.00 0.00 0.00 92 1016.8
20180920134155 54 273 1.0 3.0 0.00 0.00 0.00 92 1016.8
20180920133905 54 273 1.0 3.0 0.00 0.00 0.00 92 1016.8
20180920133354 54 259 1.0 3.0 0.00 0.00 0.00 92 1016.8
20180920132900 54 274 2.0 4.0 0.00 0.00 0.00 91 1016.7
20180920132613 54 288 1.0 4.0 0.00 0.00 0.00 91 1016.7
20180920132349 54 274 2.0 4.0 0.00 0.00 0.00 91 1016.7
20180920131900 54 292 2.0 3.0 0.00 0.00 0.00 91 1016.6
20180920131353 54 276 1.0 3.0 0.00 0.00 0.00 91 1016.6
20180920131031 54 304 1.0 3.0 0.00 0.00 0.00 91 1016.6
20180920130846 54 293 2.0 3.0 0.00 0.00 0.00 91 1016.6
20180920130358 54 290 1.0 3.0 0.00 0.00 0.00 91 1016.6
20180920125846 54 295 2.0 3.0 0.00 0.00 0.00 91 1016.6
20180920125434 54 295 0.0 4.0 0.00 0.00 0.00 91 1016.6
20180920125356 54 295 1.0 4.0 0.00 0.00 0.00 91 1016.6
20180920124845 55 297 1.0 2.0 0.00 0.00 0.00 91 1016.5
20180920124355 55 289 1.0 4.0 0.00 0.00 0.00 91 1016.6
20180920123905 55 290 2.0 4.0 0.00 0.00 0.00 91 1016.6
20180920123829 54 295 2.0 4.0 0.00 0.00 0.00 91 1016.6
20180920123354 55 288 0.0 3.0 0.00 0.00 0.00 91 1016.5
20180920122905 55 298 2.0 3.0 0.00 0.00 0.00 91 1016.5
20180920122354 55 292 2.0 3.0 0.00 0.00 0.00 91 1016.5
20180920122245 54 298 2.0 3.0 0.00 0.00 0.00 91 1016.5
20180920121904 55 285 2.0 4.0 0.00 0.00 0.00 91 1016.5
20180920121355 55 296 1.0 4.0 0.00 0.00 0.00 91 1016.5
20180920120846 55 297 1.0 1.0 0.00 0.00 0.00 91 1016.5
20180920120709 54 296 0.0 1.0 0.00 0.00 0.00 91 1016.5
20180920120358 55 290 0.0 1.0 0.00 0.00 0.00 91 1016.5
20180920115848 55 290 0.0 1.0 0.00 0.00 0.00 91 1016.5
20180920115402 55 290 0.0 1.0 0.00 0.00 0.00 91 1016.4
20180920115126 54 290 0.0 1.0 0.00 0.00 0.00 91 1016.5
20180920115032 55 290 0.0 1.0 0.00 0.00 0.00 91 1016.5
20180920114401 55 290 0.0 1.0 0.00 0.00 0.00 91 1016.4
20180920113851 55 290 0.0 3.0 0.00 0.00 0.00 91 1016.5
20180920113547 54 290 0.0 3.0 0.00 0.00 0.00 91 1016.4
20180920113403 55 290 2.0 3.0 0.00 0.00 0.00 91 1016.4
20180920112851 55 295 0.0 1.0 0.00 0.00 0.00 92 1016.4
20180920112403 55 295 0.0 1.0 0.00 0.00 0.00 92 1016.4
20180920111959 55 295 0.0 1.0 0.00 0.00 0.00 92 1016.5
20180920111853 55 295 0.0 1.0 0.00 0.00 0.00 92 1016.4
20180920111358 55 295 1.0 1.0 0.00 0.00 0.00 92 1016.5
20180920110848 55 297 0.0 1.0 0.00 0.00 0.00 92 1016.6
20180920110416 54 297 0.0 2.0 0.00 0.00 0.00 92 1016.6
20180920110400 55 297 0.0 2.0 0.00 0.00 0.00 92 1016.6
20180920105847 55 283 1.0 2.0 0.00 0.00 0.00 92 1016.6
20180920105400 55 296 1.0 2.0 0.00 0.00 0.00 92 1016.7
20180920104849 55 290 0.0 2.0 0.00 0.00 0.00 92 1016.8
20180920104800 55 290 0.0 2.0 0.00 0.00 0.00 92 1016.8
20180920104358 55 288 1.0 2.0 0.00 0.00 0.00 92 1016.8
20180920103851 55 294 1.0 2.0 0.00 0.00 0.00 92 1016.8
20180920103402 55 292 1.0 2.0 0.00 0.00 0.00 92 1016.8
20180920103220 55 293 0.0 2.0 0.00 0.00 0.00 92 1016.9
20180920102853 55 295 1.0 2.0 0.00 0.00 0.00 92 1016.9
20180920102404 55 296 1.0 2.0 0.00 0.00 0.00 92 1017.0
20180920101856 55 281 1.0 2.0 0.00 0.00 0.00 92 1017.0
20180920101642 55 279 1.0 2.0 0.00 0.00 0.00 92 1017.0
20180920101346 55 291 1.0 3.0 0.00 0.00 0.00 92 1017.1
20180920100859 55 287 1.0 3.0 0.00 0.00 0.00 92 1017.1
20180920100348 55 294 1.0 3.0 0.00 0.00 0.00 92 1017.0
20180920100129 55 288 1.0 3.0 0.00 0.00 0.00 92 1017.1
20180920095856 55 291 2.0 3.0 0.00 0.00 0.00 92 1017.0
20180920095348 55 294 3.0 3.0 0.00 0.00 0.00 91 1017.1
20180920094857 55 278 2.0 3.0 0.00 0.00 0.00 91 1017.2
20180920094455 55 287 1.0 4.0 0.00 0.00 0.00 91 1017.2
20180920094349 55 276 1.0 4.0 0.00 0.00 0.00 91 1017.2
20180920093901 55 294 2.0 4.0 0.00 0.00 0.00 91 1017.2
20180920093354 56 292 1.0 2.0 0.00 0.00 0.00 91 1017.2
20180920092921 55 294 1.0 4.0 0.00 0.00 0.00 91 1017.2
20180920092845 55 294 1.0 4.0 0.00 0.00 0.00 91 1017.2
20180920092353 56 292 2.0 4.0 0.00 0.00 0.00 91 1017.3
20180920091845 56 311 1.0 3.0 0.00 0.00 0.00 91 1017.2
20180920091356 56 307 1.0 4.0 0.00 0.00 0.00 91 1017.3
20180920091317 55 300 1.0 4.0 0.00 0.00 0.00 91 1017.3
20180920090905 56 290 2.0 5.0 0.00 0.00 0.00 91 1017.3
20180920090356 56 296 2.0 5.0 0.00 0.00 0.00 91 1017.4
20180920085846 56 296 2.0 5.0 0.00 0.00 0.00 91 1017.4
20180920085744 55 300 2.0 5.0 0.00 0.00 0.00 91 1017.4
20180920085353 56 289 2.0 5.0 0.00 0.00 0.00 91 1017.3
20180920084904 56 295 2.0 5.0 0.00 0.00 0.00 91 1017.4
20180920084352 56 279 3.0 5.0 0.00 0.00 0.00 91 1017.5
20180920084145 55 289 2.0 4.0 0.00 0.00 0.00 91 1017.5
20180920083901 56 274 2.0 4.0 0.00 0.00 0.00 91 1017.5
20180920083351 56 281 2.0 4.0 0.00 0.00 0.00 91 1017.5
20180920082901 56 288 1.0 3.0 0.00 0.00 0.00 91 1017.5
20180920082612 55 288 1.0 4.0 0.00 0.00 0.00 92 1017.6
20180920082353 56 286 1.0 4.0 0.00 0.00 0.00 92 1017.6
20180920081903 56 255 2.0 6.0 0.00 0.00 0.00 92 1017.7
20180920081352 56 295 3.0 6.0 0.00 0.00 0.00 92 1017.7
20180920081022 55 284 2.0 5.0 0.00 0.00 0.00 92 1017.8
20180920080902 56 297 3.0 5.0 0.00 0.00 0.00 92 1017.7
20180920080355 56 293 3.0 5.0 0.00 0.00 0.00 92 1017.9
20180920075905 56 271 2.0 5.0 0.00 0.00 0.00 92 1017.9
20180920075427 55 290 2.0 5.0 0.00 0.00 0.00 92 1018.0
20180920075352 56 264 2.0 5.0 0.00 0.00 0.00 92 1018.0
20180920074902 56 282 3.0 5.0 0.00 0.00 0.00 92 1018.0
20180920074354 56 296 3.0 6.0 0.00 0.00 0.00 92 1018.0
20180920073904 56 283 2.0 6.0 0.00 0.00 0.00 92 1018.1
20180920073829 55 298 2.0 6.0 0.00 0.00 0.00 92 1018.1
20180920073354 56 266 2.0 4.0 0.00 0.00 0.00 92 1018.1
20180920072904 56 291 3.0 4.0 0.00 0.00 0.00 92 1018.2
20180920072356 56 274 3.0 5.0 0.00 0.00 0.00 92 1018.2
20180920072305 56 286 1.0 5.0 0.00 0.00 0.00 92 1018.2
20180920071847 56 294 2.0 5.0 0.00 0.00 0.00 92 1018.3
20180920071359 56 291 2.0 5.0 0.00 0.00 0.00 92 1018.2
20180920070847 56 262 2.0 3.0 0.00 0.00 0.00 92 1018.3
20180920070719 56 288 1.0 4.0 0.00 0.00 0.00 92 1018.3
20180920070357 56 272 2.0 4.0 0.00 0.00 0.00 92 1018.3
20180920065858 56 273 2.0 4.0 0.00 0.00 0.00 92 1018.4
20180920065350 56 293 3.0 4.0 0.00 0.00 0.00 92 1018.4
20180920065121 56 287 1.0 4.0 0.00 0.00 0.00 92 1018.5
20180920064857 56 274 2.0 4.0 0.00 0.00 0.00 92 1018.5
20180920064348 56 291 3.0 4.0 0.00 0.00 0.00 92 1018.4
20180920063900 56 274 3.0 4.0 0.00 0.00 0.00 92 1018.4
20180920063549 56 297 2.0 4.0 0.00 0.00 0.00 92 1018.5
20180920063350 56 262 2.0 4.0 0.00 0.00 0.00 92 1018.5
20180920062901 56 294 3.0 4.0 0.00 0.00 0.00 92 1018.5
20180920062353 56 289 3.0 4.0 0.00 0.00 0.00 92 1018.6
20180920062012 56 260 2.0 4.0 0.00 0.00 0.00 92 1018.6
20180920061845 56 275 2.0 4.0 0.00 0.00 0.00 92 1018.6
20180920061357 56 288 3.0 4.0 0.00 0.00 0.00 92 1018.6
20180920060848 56 276 2.0 4.0 0.00 0.00 0.00 92 1018.6
20180920060434 56 251 1.0 3.0 0.00 0.00 0.00 92 1018.6
20180920060401 56 235 1.0 3.0 0.00 0.00 0.00 92 1018.6
20180920055849 56 281 1.0 4.0 0.00 0.00 0.00 91 1018.7
20180920055358 56 286 2.0 4.0 0.00 0.00 0.00 91 1018.7
20180920054850 56 274 2.0 4.0 0.00 0.00 0.00 92 1018.7
20180920054813 55 285 1.0 4.0 0.00 0.00 0.00 92 1018.8
20180920054358 56 269 2.0 5.0 0.00 0.00 0.00 92 1018.8
20180920053848 56 279 2.0 8.0 0.00 0.00 0.00 92 1018.7
20180920053401 56 267 3.0 8.0 0.00 0.00 0.00 92 1018.7
20180920053232 55 290 4.0 8.0 0.00 0.00 0.00 92 1018.7
20180920052851 55 282 3.0 6.0 0.00 0.00 0.00 92 1018.7
20180920052403 55 306 4.0 6.0 0.00 0.00 0.00 92 1018.7
20180920051934 55 289 3.0 6.0 0.00 0.00 0.00 92 1018.8
20180920051856 55 288 2.0 6.0 0.00 0.00 0.00 92 1018.8
20180920051347 55 292 4.0 6.0 0.00 0.00 0.00 92 1018.9
20180920050857 55 297 3.0 6.0 0.00 0.00 0.00 92 1018.8
20180920050349 55 295 2.0 6.0 0.00 0.00 0.00 92 1018.9
20180920050128 55 271 3.0 6.0 0.00 0.00 0.00 92 1018.9
20180920045859 55 280 3.0 6.0 0.00 0.00 0.00 91 1018.9
20180920045353 55 288 3.0 6.0 0.00 0.00 0.00 91 1018.9
20180920044905 55 278 3.0 5.0 0.00 0.00 0.00 91 1019.0
20180920044548 55 288 1.0 7.0 0.00 0.00 0.00 91 1019.0
20180920044356 55 251 2.0 7.0 0.00 0.00 0.00 91 1019.0
20180920043849 55 223 3.0 7.0 0.00 0.00 0.00 91 1018.9
20180920043359 55 281 2.0 6.0 0.00 0.00 0.00 90 1018.9
20180920043010 55 278 1.0 4.0 0.00 0.00 0.00 90 1018.9
20180920042849 56 257 2.0 4.0 0.00 0.00 0.00 90 1018.9
20180920042358 56 245 1.0 6.0 0.00 0.00 0.00 90 1018.9
20180920041848 56 265 3.0 6.0 0.00 0.00 0.00 90 1018.9
20180920041425 55 293 2.0 5.0 0.00 0.00 0.00 89 1018.9
20180920041359 56 283 2.0 5.0 0.00 0.00 0.00 89 1018.9
20180920040849 56 289 2.0 8.0 0.00 0.00 0.00 89 1018.9
20180920040358 56 274 4.0 8.0 0.00 0.00 0.00 89 1018.9
20180920035848 56 278 3.0 6.0 0.00 0.00 0.00 89 1018.8
20180920035816 55 281 2.0 6.0 0.00 0.00 0.00 89 1018.8
20180920035400 56 300 3.0 7.0 0.00 0.00 0.00 89 1018.8
20180920034912 56 330 3.0 7.0 0.00 0.00 0.00 89 1018.8
20180920034357 55 311 3.0 6.0 0.00 0.00 0.00 89 1018.7
20180920034225 55 270 3.0 8.0 0.00 0.00 0.00 89 1018.7
20180920033849 55 304 4.0 11.0 0.00 0.00 0.00 89 1018.7
20180920033359 56 293 5.0 11.0 0.00 0.00 0.00 89 1018.6
20180920032849 55 274 5.0 8.0 0.00 0.00 0.00 89 1018.6
20180920032655 55 279 5.0 8.0 0.00 0.00 0.00 89 1018.6
20180920032401 55 298 5.0 8.0 0.00 0.00 0.00 89 1018.6
20180920031855 56 279 6.0 9.0 0.00 0.00 0.00 88 1018.6
20180920031347 56 298 5.0 10.0 0.00 0.00 0.00 88 1018.5
20180920031124 55 285 5.0 10.0 0.00 0.00 0.00 88 1018.5
20180920030858 56 280 6.0 10.0 0.00 0.00 0.00 88 1018.5
20180920030349 56 270 6.0 10.0 0.00 0.00 0.00 87 1018.4
20180920025857 56 271 6.0 10.0 0.00 0.00 0.00 87 1018.5
20180920025527 56 290 6.0 10.0 0.00 0.00 0.00 86 1018.4
20180920025351 56 276 7.0 10.0 0.00 0.00 0.00 86 1018.4
20180920024902 56 281 6.0 10.0 0.00 0.00 0.00 86 1018.4
20180920024353 57 283 7.0 10.0 0.00 0.00 0.00 85 1018.4
20180920023946 56 267 6.0 10.0 0.00 0.00 0.00 84 1018.3
20180920023905 57 268 6.0 10.0 0.00 0.00 0.00 84 1018.3
20180920023354 57 280 6.0 10.0 0.00 0.00 0.00 83 1018.3
20180920022845 58 287 5.0 15.0 0.00 0.00 0.00 81 1018.3
20180920022410 58 290 6.0 15.0 0.00 0.00 0.00 80 1018.3
20180920022355 58 272 7.0 15.0 0.00 0.00 0.00 80 1018.3
20180920021902 58 210 8.0 13.0 0.00 0.00 0.00 79 1018.3
20180920021353 59 297 5.0 12.0 0.00 0.00 0.00 78 1018.2
20180920020901 59 310 7.0 12.0 0.00 0.00 0.00 77 1018.2
20180920020811 59 297 6.0 12.0 0.00 0.00 0.00 77 1018.2
20180920020353 60 288 7.0 12.0 0.00 0.00 0.00 76 1018.2
20180920015859 60 298 6.0 15.0 0.00 0.00 0.00 75 1018.1
20180920015350 60 285 6.0 15.0 0.00 0.00 0.00 74 1018.1
20180920015217 60 297 8.0 15.0 0.00 0.00 0.00 74 1018.1
20180920014902 61 297 9.0 13.0 0.00 0.00 0.00 73 1018.1
20180920014352 61 278 5.0 13.0 0.00 0.00 0.00 73 1017.9
20180920013903 61 334 7.0 13.0 0.00 0.00 0.00 72 1018.0
20180920013634 61 309 6.0 13.0 0.00 0.00 0.00 72 1018.0
20180920013357 61 301 6.0 13.0 0.00 0.00 0.00 71 1017.9
20180920012847 62 289 6.0 15.0 0.00 0.00 0.00 70 1018.0
20180920012359 62 311 7.0 15.0 0.00 0.00 0.00 70 1017.9
20180920012105 61 313 8.0 15.0 0.00 0.00 0.00 69 1018.0
20180920011850 62 257 8.0 15.0 0.00 0.00 0.00 69 1018.0
20180920011403 62 306 9.0 15.0 0.00 0.00 0.00 68 1017.9
20180920010853 63 306 7.0 14.0 0.00 0.00 0.00 66 1017.8
20180920010524 62 283 7.0 14.0 0.00 0.00 0.00 65 1017.8
20180920010345 63 290 7.0 12.0 0.00 0.00 0.00 65 1017.7
20180920005853 64 252 5.0 14.0 0.00 0.00 0.00 65 1017.7
20180920005404 63 321 4.0 14.0 0.00 0.00 0.00 65 1017.7
20180920004928 63 280 6.0 14.0 0.00 0.00 0.00 64 1017.8
20180920004857 64 304 6.0 14.0 0.00 0.00 0.00 64 1017.7
20180920004348 64 302 8.0 14.0 0.00 0.00 0.00 63 1017.7
20180920003901 64 297 10.0 14.0 0.00 0.00 0.00 62 1017.7
20180920003353 64 300 7.0 13.0 0.00 0.00 0.00 61 1017.7
20180920003335 64 300 6.0 13.0 0.00 0.00 0.00 61 1017.7
20180920002903 64 295 8.0 13.0 0.00 0.00 0.00 61 1017.7
20180920002355 65 279 8.0 12.0 0.00 0.00 0.00 60 1017.6
20180920001848 65 296 7.0 12.0 0.00 0.00 0.00 59 1017.7
20180920001752 64 288 6.0 12.0 0.00 0.00 0.00 59 1017.7
20180920001405 65 271 6.0 12.0 0.00 0.00 0.00 59 1017.8
20180920000858 65 315 7.0 15.0 0.00 0.00 0.00 58 1017.8
20180920000348 65 291 8.0 18.0 0.00 0.00 0.00 58 1017.8
20180920000201 64 302 10.0 18.0 0.00 0.00 0.00 57 1017.8